Torna al catalogo

NOAA 16 DEB

AttivoSSO
NORAD 41409·DEBRIS·🇺🇸 United States

Lanciato Sep 21, 2000 da Vandenberg Space Force Base

Loading…

Prossimi Passaggi (prossime 24 ore)

TLE

AggiornatoSource: Space-Track

Epoca: Sep 12, 2026, 11:45 UTC

1 41409U 00055KN  26255.49001263  .00004108  00000-0  11939-2 0  9991
2 41409  98.6386 344.3327 0022418 298.5889  61.3046 14.44692437548575

Traccia NOAA 16 DEB in tempo reale con AllMySat

Download on the App Store